Retour au catalogue

COSMOS 2251 DEB

ActifLEO
NORAD 35663·DEBRIS·🇷🇺 Russia

Lancé Jun 16, 1993 depuis Plesetsk Cosmodrome

Loading…

Prochains Passages (prochaines 24 heures)

TLE

PériméSource: Space-Track

Époque: Sep 5, 2026, 11:58 UTC

1 35663U 93036APE 26248.49868034  .00002760  00000-0  47450-3 0  9996
2 35663  74.0187 328.8454 0008697 330.6784  29.3897 14.69119957772957

Suivez COSMOS 2251 DEB en temps réel avec AllMySat

Download on the App Store